Location: Borkenes
(68.7830°N, 16.1830°E)
Time: 00:49:27
(UTC+01:00)

Altair - All Passes

Search period start: 13 December 2019 00:00
Search period end: 23 December 2019 00:00
Orbit: 1502 x 1682 km, 47.2° (Epoch: 12 December)

Date Brightness Start Highest point End Pass type
(mag) Time Alt. Az. Time Alt. Az. Time Alt. Az.
13 Dec - 01:16:52 10° SW 01:21:32 15° SSW 01:26:12 10° S night (unlit)
13 Dec - 20:48:50 10° S 20:53:22 15° SSE 20:57:51 10° ESE visible
13 Dec - 22:49:06 10° SW 22:54:59 19° S 23:00:47 10° SE night (unlit)
14 Dec - 00:51:44 10° SW 00:56:37 16° SSW 01:01:27 10° S night (unlit)
14 Dec - 20:24:07 10° S 20:28:27 14° SSE 20:32:43 10° ESE visible
14 Dec - 22:24:08 10° SW 22:30:01 19° S 22:35:50 10° SE night (unlit)
15 Dec - 00:26:37 10° SW 00:31:41 16° SSW 00:36:41 10° SSE night (unlit)
15 Dec - 19:59:25 10° S 20:03:31 14° SSE 20:07:33 10° ESE visible
15 Dec - 21:59:11 10° SW 22:05:04 19° S 22:10:52 10° SE visible
16 Dec - 00:01:31 10° SW 00:06:44 17° SSW 00:11:54 10° SSE night (unlit)
16 Dec - 19:34:46 10° S 19:38:35 13° SSE 19:42:22 10° ESE visible
16 Dec - 21:34:14 10° SSW 21:40:07 19° S 21:45:54 10° SE visible
16 Dec - 23:36:25 10° SW 23:41:48 17° SSW 23:47:07 10° SSE night (unlit)
17 Dec - 19:10:10 10° SSE 19:13:40 13° SE 19:17:08 10° SE visible
17 Dec - 21:09:18 10° SSW 21:15:10 18° S 21:20:55 10° SE visible
17 Dec - 23:11:21 10° SW 23:16:51 17° SSW 23:22:18 10° SSE night (unlit)
18 Dec - 01:17:46 10° SW 01:18:09 10° SW 01:18:32 10° SW night (unlit)
18 Dec - 18:45:38 10° SSE 18:48:45 12° SE 18:51:50 10° SE visible
18 Dec - 20:44:23 10° SSW 20:50:12 18° S 20:55:56 10° SE visible
18 Dec - 22:46:17 10° SW 22:51:55 18° SSW 22:57:28 10° SSE visible
19 Dec - 00:51:22 10° SW 00:53:16 11° SW 00:55:07 10° SSW night (unlit)
19 Dec - 18:21:10 10° SSE 18:23:49 11° SE 18:26:28 10° SE visible
19 Dec - 20:19:28 10° SSW 20:25:15 18° SSE 20:30:56 10° SE visible
19 Dec - 22:21:14 10° SW 22:26:58 18° SSW 22:32:37 10° SSE visible
20 Dec - 00:25:45 10° SW 00:28:22 11° SW 00:30:56 10° SSW night (unlit)
20 Dec - 17:56:52 10° SSE 17:58:55 11° SE 18:00:57 10° SE visible
20 Dec - 19:54:34 10° SSW 20:00:18 18° SSE 20:05:56 10° SE visible
20 Dec - 21:56:10 10° SW 22:02:01 18° S 22:07:46 10° SSE visible
21 Dec - 00:00:18 10° SW 00:03:27 12° SW 00:06:34 10° SSW night (unlit)
21 Dec - 17:32:58 10° SE 17:34:01 10° SE 17:35:03 10° SE visible
21 Dec - 19:29:40 10° SSW 19:35:21 18° SSE 19:40:55 10° SE visible
21 Dec - 21:31:08 10° SW 21:37:03 19° S 21:42:53 10° SSE visible
21 Dec - 23:34:57 10° WSW 23:38:32 13° SW 23:42:05 10° S visible
22 Dec - 19:04:47 10° SSW 19:10:23 17° SSE 19:15:53 10° SE visible
22 Dec - 21:06:06 10° SW 21:12:06 19° S 21:18:00 10° SSE visible
22 Dec - 23:09:40 10° WSW 23:13:37 13° SSW 23:17:32 10° S visible
